SR9NLI Weather Reports


Display with metric or nautical units.
time (UTC)temp
F
wind
direction
speed
MPH
gust
MPH
rain 1hr
in
rain 24hr
in
rain mn
in
humidity
%
barometer
mb
20260508052403 48 359 9.0 15.0 0.00 0.00 0.00 100 957.1
20260508052201 48 358 9.0 14.0 0.00 0.00 0.00 100 957.3
20260508052100 48 355 9.0 14.0 0.00 0.00 0.00 100 957.3
20260508051958 48 354 8.0 13.0 0.00 0.00 0.00 100 957.1
20260508051755 48 352 8.0 12.0 0.00 0.00 0.00 100 957.2
20260508051552 48 357 9.0 14.0 0.00 0.00 0.00 100 957.2
20260508051451 48 359 9.0 14.0 0.00 0.00 0.00 100 957.1
20260508051349 48 1 9.0 14.0 0.00 0.00 0.00 100 957.1
20260508051146 48 2 9.0 12.0 0.00 0.00 0.00 100 957.2
20260508050943 48 0 7.0 12.0 0.00 0.00 0.00 100 957.0
20260508050842 48 1 7.0 11.0 0.00 0.00 0.00 100 957.1
20260508050740 48 0 7.0 11.0 0.00 0.00 0.00 100 957.0
20260508050536 48 0 6.0 11.0 0.00 0.00 0.00 100 957.0
20260508050333 48 359 5.0 8.0 0.00 0.00 0.00 100 957.0
20260508050232 48 356 4.0 7.0 0.00 0.00 0.00 100 957.0
20260508050130 48 350 4.0 7.0 0.00 0.00 0.00 100 956.9
20260508045928 49 354 5.0 9.0 0.00 0.00 0.00 100 957.0
20260508045724 49 2 5.0 9.0 0.00 0.00 0.00 100 957.1
20260508045623 48 0 4.0 9.0 0.00 0.00 0.00 100 956.9
20260508045521 49 352 4.0 9.0 0.00 0.00 0.00 100 956.8
20260508045318 49 350 2.0 4.0 0.00 0.00 0.00 100 956.9
20260508045115 49 5 2.0 4.0 0.00 0.00 0.00 100 957.0
20260508045014 49 9 2.0 3.0 0.00 0.00 0.00 100 957.0
20260508044912 49 357 2.0 3.0 0.00 0.00 0.00 100 957.1
20260508044710 49 333 2.0 4.0 0.00 0.00 0.00 100 956.9
20260508044507 49 325 2.0 4.0 0.00 0.00 0.00 100 957.0
20260508044406 49 322 2.0 4.0 0.00 0.00 0.00 100 956.9
20260508044304 50 313 2.0 3.0 0.00 0.00 0.00 100 957.1
20260508044100 50 0 0.0 2.0 0.00 0.00 0.00 100 957.0
20260508043857 50 0 0.0 1.0 0.00 0.00 0.00 100 956.9
20260508043757 50 0 0.0 1.0 0.00 0.00 0.00 100 956.9
20260508043655 50 0 0.0 2.0 0.00 0.00 0.00 100 957.0
20260508043452 49 156 1.0 2.0 0.00 0.00 0.00 100 956.8
20260508043249 49 165 1.0 2.0 0.00 0.00 0.00 100 956.8
20260508043149 49 0 1.0 2.0 0.00 0.00 0.00 100 956.9
20260508043046 49 0 0.0 2.0 0.00 0.00 0.00 100 956.8
20260508042843 49 0 1.0 3.0 0.00 0.00 0.00 100 956.9
20260508042640 49 176 1.0 3.0 0.00 0.00 0.00 100 956.8
20260508042539 49 171 2.0 3.0 0.00 0.00 0.00 100 956.9
20260508042437 49 165 2.0 3.0 0.00 0.00 0.00 100 956.8
20260508042234 49 153 2.0 3.0 0.00 0.00 0.00 100 956.7
20260508042031 49 0 1.0 2.0 0.00 0.00 0.00 100 956.9
20260508041930 49 0 0.0 2.0 0.00 0.00 0.00 100 956.8
20260508041828 49 0 0.0 1.0 0.00 0.00 0.00 100 956.9
20260508041625 49 0 0.0 1.0 0.00 0.00 0.00 100 956.9
20260508041421 49 0 1.0 2.0 0.00 0.00 0.00 100 957.0
20260508041320 49 295 1.0 2.0 0.00 0.00 0.00 100 956.9
20260508041218 49 297 1.0 2.0 0.00 0.00 0.00 100 956.9
20260508041015 49 290 1.0 3.0 0.00 0.00 0.00 100 956.9
20260508040811 49 282 2.0 3.0 0.00 0.00 0.00 100 956.8
20260508040711 49 282 2.0 3.0 0.00 0.00 0.00 100 956.9
20260508040608 49 283 2.0 3.0 0.00 0.00 0.00 100 956.8
20260508040405 48 279 2.0 3.0 0.00 0.00 0.00 100 956.8
20260508040202 48 281 2.0 3.0 0.00 0.00 0.00 100 956.8
20260508040101 48 289 2.0 3.0 0.00 0.00 0.00 100 956.8
20260508035959 48 299 2.0 3.0 0.00 0.00 0.00 100 956.8
20260508035756 48 320 2.0 3.0 0.00 0.00 0.00 100 956.7
20260508035552 48 336 2.0 3.0 0.00 0.00 0.00 100 956.6
20260508035452 48 341 2.0 3.0 0.00 0.00 0.00 100 956.6
20260508035350 48 339 2.0 3.0 0.00 0.00 0.00 100 956.7
20260508035147 48 335 2.0 3.0 0.00 0.00 0.00 100 956.7
20260508034944 48 328 2.0 3.0 0.00 0.00 0.00 100 956.6
20260508034843 48 322 2.0 3.0 0.00 0.00 0.00 100 956.6
20260508034741 48 321 2.0 4.0 0.00 0.00 0.00 100 956.7
20260508034537 48 315 3.0 4.0 0.00 0.00 0.00 100 956.7
20260508034334 48 314 3.0 4.0 0.00 0.00 0.00 100 956.7
20260508034234 48 318 3.0 4.0 0.00 0.00 0.00 100 956.6
20260508034131 48 321 3.0 4.0 0.00 0.00 0.00 100 956.7
20260508033928 48 321 3.0 4.0 0.00 0.00 0.00 100 956.6
20260508033725 48 313 3.0 5.0 0.00 0.00 0.00 100 956.6
20260508033624 48 313 4.0 5.0 0.00 0.00 0.00 100 956.6
20260508033522 48 309 4.0 5.0 0.00 0.00 0.00 100 956.6
20260508033319 49 299 2.0 5.0 0.00 0.00 0.00 100 956.5
20260508033116 49 0 1.0 4.0 0.00 0.00 0.00 100 956.5
20260508033015 49 0 0.0 2.0 0.00 0.00 0.00 100 956.5
20260508032913 49 0 0.0 2.0 0.00 0.00 0.00 100 956.5
20260508032710 49 0 0.0 2.0 0.00 0.00 0.00 100 956.5
20260508032507 49 0 0.0 1.0 0.00 0.00 0.00 100 956.4
20260508032406 49 0 0.0 1.0 0.00 0.00 0.00 100 956.4
20260508032306 49 0 0.0 1.0 0.00 0.00 0.00 100 956.5
20260508032101 49 0 0.0 1.0 0.00 0.00 0.00 100 956.5
20260508031857 49 0 0.0 1.0 0.00 0.00 0.00 100 956.5
20260508031756 49 0 0.0 1.0 0.00 0.00 0.00 100 956.4
20260508031654 49 0 0.0 1.0 0.00 0.00 0.00 100 956.4
20260508031450 49 0 0.0 2.0 0.00 0.00 0.00 100 956.4
20260508031247 49 0 0.0 4.0 0.00 0.00 0.00 100 956.4
20260508031146 49 0 0.0 4.0 0.00 0.00 0.00 100 956.4
20260508031043 49 0 0.0 4.0 0.00 0.00 0.00 100 956.5
20260508030840 49 0 0.0 2.0 0.00 0.00 0.00 100 956.4
20260508030627 49 0 0.0 3.0 0.00 0.00 0.00 100 956.4
20260508030526 49 0 1.0 3.0 0.00 0.00 0.00 100 956.3
20260508030423 49 0 1.0 3.0 0.00 0.00 0.00 100 956.3
20260508030220 49 0 1.0 4.0 0.00 0.00 0.00 100 956.3
20260508030017 49 0 1.0 4.0 0.00 0.00 0.00 100 956.3
20260508025916 49 0 1.0 4.0 0.00 0.00 0.00 100 956.3
20260508025814 49 0 1.0 3.0 0.00 0.00 0.00 100 956.4
20260508025610 49 0 1.0 2.0 0.00 0.00 0.00 100 956.3
20260508025407 49 0 1.0 4.0 0.00 0.00 0.00 100 956.3
20260508025306 49 0 1.0 4.0 0.00 0.00 0.00 100 956.4
20260508025204 49 0 1.0 4.0 0.00 0.00 0.00 100 956.2
20260508025001 49 0 1.0 3.0 0.00 0.00 0.00 100 956.2
20260508024758 49 0 0.0 3.0 0.00 0.00 0.00 100 956.2
20260508024657 49 0 0.0 2.0 0.00 0.00 0.00 100 956.2
20260508024554 49 0 0.0 2.0 0.00 0.00 0.00 100 956.2
20260508024351 50 0 0.0 2.0 0.00 0.00 0.00 100 956.2
20260508024147 50 0 0.0 2.0 0.00 0.00 0.00 100 956.3
20260508024047 50 0 0.0 2.0 0.00 0.00 0.00 100 956.2
20260508023945 50 0 0.0 2.0 0.00 0.00 0.00 100 956.2
20260508023743 50 0 0.0 2.0 0.00 0.00 0.00 100 956.2
20260508023540 50 0 0.0 2.0 0.00 0.00 0.00 100 956.2
20260508023439 50 0 0.0 2.0 0.00 0.00 0.00 100 956.3
20260508023337 50 0 0.0 2.0 0.00 0.00 0.00 100 956.2
20260508023134 50 0 0.0 2.0 0.00 0.00 0.00 100 956.3
20260508022930 50 0 0.0 1.0 0.00 0.00 0.00 100 956.3
20260508022829 50 0 0.0 1.0 0.00 0.00 0.00 100 956.2
20260508022727 50 0 0.0 1.0 0.00 0.00 0.00 100 956.1
20260508022524 50 0 0.0 3.0 0.00 0.00 0.00 100 956.2
20260508022321 50 0 0.0 3.0 0.00 0.00 0.00 100 956.1
20260508022221 50 0 0.0 1.0 0.00 0.00 0.00 100 956.2
20260508022119 50 0 0.0 3.0 0.00 0.00 0.00 100 956.2
20260508021915 50 0 1.0 3.0 0.00 0.00 0.00 100 956.2
20260508021713 50 0 0.0 2.0 0.00 0.00 0.00 100 956.2
20260508021612 50 0 0.0 1.0 0.00 0.00 0.00 100 956.2
20260508021509 50 0 0.0 2.0 0.00 0.00 0.00 100 956.2
20260508021307 50 270 1.0 2.0 0.00 0.00 0.00 100 956.3
20260508021104 50 0 0.0 2.0 0.00 0.00 0.00 100 956.2
20260508021004 50 0 0.0 2.0 0.00 0.00 0.00 100 956.2
20260508020901 50 0 0.0 1.0 0.00 0.00 0.00 100 956.2
20260508020659 50 0 0.0 1.0 0.00 0.00 0.00 100 956.2
20260508020455 50 0 0.0 1.0 0.00 0.00 0.00 100 956.2
20260508020353 50 0 0.0 2.0 0.00 0.00 0.00 100 956.1
20260508020252 50 0 0.0 2.0 0.00 0.00 0.00 100 956.1
20260508020049 50 0 0.0 2.0 0.00 0.00 0.00 100 956.1
20260508015845 50 0 0.0 2.0 0.00 0.00 0.00 100 956.1
20260508015744 50 0 0.0 2.0 0.00 0.00 0.00 100 956.1
20260508015642 50 0 0.0 2.0 0.00 0.00 0.00 100 956.1
20260508015439 50 0 0.0 1.0 0.00 0.00 0.00 100 956.1
20260508015237 50 0 0.0 1.0 0.00 0.00 0.00 100 956.2
20260508015136 50 0 0.0 2.0 0.00 0.00 0.00 100 956.1
20260508015034 50 0 0.0 2.0 0.00 0.00 0.00 100 956.1
20260508014831 50 0 0.0 2.0 0.00 0.00 0.00 100 956.1
20260508014628 50 0 0.0 2.0 0.00 0.00 0.00 100 956.2
20260508014527 50 0 0.0 2.0 0.00 0.00 0.00 100 956.2
20260508014425 50 0 0.0 2.0 0.00 0.00 0.00 100 956.2
20260508014222 50 0 0.0 2.0 0.00 0.00 0.00 100 956.1
20260508014019 50 0 0.0 1.0 0.00 0.00 0.00 100 956.2
20260508013918 50 0 0.0 1.0 0.00 0.00 0.00 100 956.2
20260508013816 50 0 0.0 1.0 0.00 0.00 0.00 100 956.2
20260508013612 50 0 0.0 1.0 0.00 0.00 0.00 100 956.2
20260508013409 50 0 0.0 1.0 0.00 0.00 0.00 100 956.2
20260508013308 50 0 0.0 1.0 0.00 0.00 0.00 100 956.1
20260508013206 50 0 0.0 1.0 0.00 0.00 0.00 100 956.2
20260508013002 50 91 1.0 1.0 0.00 0.00 0.00 100 956.1
20260508012759 50 82 1.0 1.0 0.00 0.00 0.00 100 956.0
20260508012658 50 96 1.0 1.0 0.00 0.00 0.00 100 956.0
20260508012556 50 116 1.0 1.0 0.00 0.00 0.00 100 956.0
20260508012353 50 145 1.0 1.0 0.00 0.00 0.00 100 956.1
20260508012150 50 0 0.0 2.0 0.00 0.00 0.00 100 956.1
20260508012049 50 0 0.0 1.0 0.00 0.00 0.00 100 956.2
20260508011946 50 0 0.0 1.0 0.00 0.00 0.00 100 956.1
20260508011743 50 0 0.0 1.0 0.00 0.00 0.00 100 956.1
20260508011540 50 0 0.0 2.0 0.00 0.00 0.00 100 956.2
20260508011439 50 263 1.0 2.0 0.00 0.00 0.00 100 956.2
20260508011337 50 274 1.0 2.0 0.00 0.00 0.00 100 956.2
20260508011134 49 286 1.0 2.0 0.00 0.00 0.00 100 956.1
20260508010931 49 308 1.0 3.0 0.00 0.00 0.00 100 956.2
20260508010830 49 309 2.0 3.0 0.00 0.00 0.00 100 956.2
20260508010727 50 311 2.0 3.0 0.00 0.00 0.00 100 956.1
20260508010524 49 318 2.0 3.0 0.00 0.00 0.00 100 956.2
20260508010321 49 322 2.0 2.0 0.00 0.00 0.00 100 956.1
20260508010220 49 324 2.0 2.0 0.00 0.00 0.00 100 956.1
20260508010118 49 327 2.0 2.0 0.00 0.00 0.00 100 956.2
20260508005914 49 339 2.0 2.0 0.00 0.00 0.00 100 956.0
20260508005711 49 342 2.0 2.0 0.00 0.00 0.00 100 956.0
20260508005611 49 342 1.0 2.0 0.00 0.00 0.00 100 956.0
20260508005509 50 339 1.0 2.0 0.00 0.00 0.00 100 956.0
20260508005306 50 335 1.0 1.0 0.00 0.00 0.00 100 956.0
20260508005102 49 344 1.0 1.0 0.00 0.00 0.00 100 956.0
20260508005001 50 355 1.0 1.0 0.00 0.00 0.00 100 956.1
20260508004859 49 7 1.0 1.0 0.00 0.00 0.00 100 956.0
20260508004655 50 13 0.0 1.0 0.00 0.00 0.00 100 956.0
20260508004452 50 0 0.0 1.0 0.00 0.00 0.00 100 956.0
20260508004352 50 0 0.0 1.0 0.00 0.00 0.00 100 956.1
20260508004249 50 46 0.0 1.0 0.00 0.00 0.00 100 956.0
20260508004046 50 21 1.0 1.0 0.00 0.00 0.00 100 956.0
20260508003843 50 329 1.0 2.0 0.00 0.00 0.00 100 956.0
20260508003742 50 308 1.0 2.0 0.00 0.00 0.00 100 956.0
20260508003640 50 301 1.0 2.0 0.00 0.00 0.00 100 956.0
20260508003437 50 295 2.0 2.0 0.00 0.00 0.00 100 955.9
20260508003234 50 274 2.0 2.0 0.00 0.00 0.00 100 956.0
20260508003134 50 268 1.0 2.0 0.00 0.00 0.00 100 956.0
20260508003031 50 263 1.0 2.0 0.00 0.00 0.00 100 956.0
20260508002816 50 0 0.0 2.0 0.00 0.00 0.00 100 956.2
20260508002612 50 0 0.0 2.0 0.00 0.00 0.00 100 956.1
20260508002511 50 0 0.0 2.0 0.00 0.00 0.00 100 956.2
20260508002409 50 0 0.0 2.0 0.00 0.00 0.00 100 956.1
20260508002206 50 0 0.0 2.0 0.00 0.00 0.00 100 956.2
20260508002003 50 0 0.0 2.0 0.00 0.00 0.00 100 956.2
20260508001902 50 0 0.0 2.0 0.00 0.00 0.00 100 956.3
20260508001800 50 0 0.0 2.0 0.00 0.00 0.00 100 956.3
20260508001556 50 0 0.0 2.0 0.00 0.00 0.00 100 956.3
20260508001354 50 0 0.0 2.0 0.00 0.00 0.00 100 956.3
20260508001253 50 0 0.0 2.0 0.00 0.00 0.00 100 956.2
20260508001150 50 0 0.0 2.0 0.00 0.00 0.00 100 956.2
20260508000947 50 0 0.0 2.0 0.00 0.00 0.00 100 956.2
20260508000744 50 0 0.0 2.0 0.00 0.00 0.00 100 956.3
20260508000643 50 0 0.0 2.0 0.00 0.00 0.00 100 956.3
20260508000541 50 0 0.0 2.0 0.00 0.00 0.00 100 956.3
20260508000337 50 0 0.0 2.0 0.00 0.00 0.00 100 956.3
20260508000134 50 0 0.0 1.0 0.00 0.00 0.00 100 956.2
20260508000033 50 0 0.0 1.0 0.00 0.00 0.00 100 956.1
20260507235930 50 0 0.0 1.0 0.00 0.00 0.00 100 956.2
20260507235727 50 0 0.0 2.0 0.00 0.00 0.00 100 956.2
20260507235524 50 0 0.0 2.0 0.00 0.00 0.00 100 956.2
20260507235423 50 0 0.0 2.0 0.00 0.00 0.00 100 956.2
20260507235321 50 0 0.0 2.0 0.00 0.00 0.00 100 956.2
20260507235118 50 0 0.0 2.0 0.00 0.00 0.00 100 956.2
20260507234914 50 0 0.0 2.0 0.00 0.00 0.00 100 956.2
20260507234814 50 0 0.0 2.0 0.00 0.00 0.00 100 956.1
20260507234711 50 0 0.0 2.0 0.00 0.00 0.00 100 956.2
20260507234508 50 0 0.0 2.0 0.00 0.00 0.00 100 956.1
20260507234305 50 0 1.0 3.0 0.00 0.00 0.00 100 956.2
20260507234204 50 170 1.0 3.0 0.00 0.00 0.00 100 956.2
20260507234102 50 175 1.0 3.0 0.00 0.00 0.00 100 956.2
20260507233858 50 149 1.0 3.0 0.00 0.00 0.00 100 956.2
20260507233655 50 84 2.0 4.0 0.00 0.00 0.00 100 956.2
20260507233555 50 75 2.0 4.0 0.00 0.00 0.00 100 956.2
20260507233452 50 80 2.0 4.0 0.00 0.00 0.00 100 956.1
20260507233249 50 97 2.0 4.0 0.00 0.00 0.00 100 956.3
20260507233046 50 108 3.0 4.0 0.00 0.00 0.00 100 956.3
20260507232945 50 108 3.0 4.0 0.00 0.00 0.00 100 956.3
20260507232842 50 109 2.0 4.0 0.00 0.00 0.00 100 956.4
20260507232639 50 110 1.0 4.0 0.00 0.00 0.00 100 956.4
20260507232436 50 0 0.0 2.0 0.00 0.00 0.00 100 956.5
20260507232336 50 0 0.0 2.0 0.00 0.00 0.00 100 956.5
20260507232234 50 0 0.0 2.0 0.00 0.00 0.00 100 956.6
20260507232030 50 0 0.0 3.0 0.00 0.00 0.00 100 956.6
20260507231827 51 189 1.0 3.0 0.00 0.00 0.00 100 956.5
20260507231727 51 180 1.0 4.0 0.00 0.00 0.00 100 956.4
20260507231624 51 174 1.0 4.0 0.00 0.00 0.00 100 956.5
20260507231421 51 168 2.0 4.0 0.00 0.00 0.00 100 956.5
20260507231218 51 169 2.0 3.0 0.00 0.00 0.00 100 956.5
20260507231117 51 173 1.0 3.0 0.00 0.00 0.00 100 956.5
20260507231015 51 0 0.0 2.0 0.00 0.00 0.00 100 956.5
20260507230812 51 0 0.0 2.0 0.00 0.00 0.00 100 956.5
20260507230609 51 269 1.0 2.0 0.00 0.00 0.00 100 956.4
20260507230508 51 272 1.0 2.0 0.00 0.00 0.00 100 956.5
20260507230406 51 269 1.0 2.0 0.00 0.00 0.00 100 956.4
20260507230203 51 260 1.0 2.0 0.00 0.00 0.00 100 956.4
20260507230000 51 271 1.0 2.0 0.00 0.00 0.00 100 956.3
20260507225859 51 279 1.0 3.0 0.00 0.00 0.00 100 956.3
20260507225757 51 278 1.0 3.0 0.00 0.00 0.00 100 956.3
20260507225554 51 294 1.0 3.0 0.00 0.00 0.00 100 956.3
20260507225351 51 306 3.0 5.0 0.00 0.00 0.00 100 956.3
20260507225251 51 310 3.0 5.0 0.00 0.00 0.00 100 956.3
20260507225148 51 313 4.0 5.0 0.00 0.00 0.00 100 956.2
20260507224944 51 318 4.0 5.0 0.00 0.00 0.00 100 956.3
20260507224741 51 310 4.0 5.0 0.00 0.00 0.00 100 956.3
20260507224640 51 302 4.0 5.0 0.00 0.00 0.00 100 956.3
20260507224538 51 289 4.0 5.0 0.00 0.00 0.00 100 956.2
20260507224335 51 276 3.0 4.0 0.00 0.00 0.00 100 956.3
20260507224132 51 278 2.0 4.0 0.00 0.00 0.00 100 956.3
20260507224030 51 295 2.0 4.0 0.00 0.00 0.00 100 956.2
20260507223929 52 317 2.0 4.0 0.00 0.00 0.00 100 956.1
20260507223726 52 320 2.0 4.0 0.00 0.00 0.00 100 956.2
20260507223524 52 303 2.0 4.0 0.00 0.00 0.00 100 956.3
20260507223423 51 289 2.0 5.0 0.00 0.00 0.00 100 956.4
20260507223320 51 282 3.0 6.0 0.00 0.00 0.00 100 956.3
20260507223118 51 271 4.0 6.0 0.00 0.00 0.00 100 956.4
20260507222914 51 265 4.0 6.0 0.00 0.00 0.00 100 956.4
20260507222813 51 265 3.0 7.0 0.00 0.00 0.00 100 956.4
20260507222711 51 268 4.0 7.0 0.00 0.00 0.00 100 956.3
20260507222509 51 270 4.0 7.0 0.00 0.00 0.00 100 956.4
20260507222306 51 288 4.0 6.0 0.00 0.00 0.00 100 956.3
20260507222204 51 292 4.0 6.0 0.00 0.00 0.00 100 956.3
20260507222102 51 294 4.0 6.0 0.00 0.00 0.00 100 956.2
20260507221859 51 300 5.0 8.0 0.00 0.00 0.00 100 956.2
20260507221655 51 301 5.0 8.0 0.00 0.00 0.00 100 956.2
20260507221554 51 301 5.0 7.0 0.00 0.00 0.00 100 956.1
20260507221451 51 302 4.0 7.0 0.00 0.00 0.00 100 956.2
20260507221249 51 303 4.0 7.0 0.00 0.00 0.00 100 956.1
20260507221045 51 301 4.0 6.0 0.00 0.00 0.00 100 956.1
20260507220945 51 303 4.0 5.0 0.00 0.00 0.00 100 956.0
20260507220843 51 305 4.0 5.0 0.00 0.00 0.00 100 956.0
20260507220640 51 310 4.0 5.0 0.00 0.00 0.00 100 956.0
20260507220437 51 300 4.0 8.0 0.00 0.00 0.00 100 956.0
20260507220336 51 294 5.0 8.0 0.00 0.00 0.00 100 956.0
20260507220233 51 291 5.0 8.0 0.00 0.00 0.00 100 956.0
20260507220030 51 296 6.0 8.0 0.00 0.00 0.00 100 956.0
20260507215827 51 301 6.0 9.0 0.00 0.00 0.00 100 955.9
20260507215726 51 301 6.0 9.0 0.00 0.00 0.00 100 956.0
20260507215624 51 303 6.0 10.0 0.00 0.00 0.00 100 956.1
20260507215420 51 302 8.0 11.0 0.00 0.00 0.00 100 955.9
20260507215217 51 303 6.0 11.0 0.00 0.00 0.00 100 955.8
20260507215116 51 300 6.0 10.0 0.00 0.00 0.00 100 955.9
20260507215014 51 298 5.0 7.0 0.00 0.00 0.00 100 955.9
20260507214801 51 295 6.0 8.0 0.00 0.00 0.00 100 955.8
20260507214557 51 305 6.0 8.0 0.00 0.00 0.00 100 956.0
20260507214457 51 308 5.0 8.0 0.00 0.00 0.00 100 956.0
20260507214354 51 321 4.0 8.0 0.00 0.00 0.00 100 956.1
20260507214151 51 327 2.0 4.0 0.00 0.00 0.00 100 956.2
20260507213948 51 0 1.0 2.0 0.00 0.00 0.00 100 956.1
20260507213847 51 0 0.0 2.0 0.00 0.00 0.00 100 956.1
20260507213744 51 0 0.0 2.0 0.00 0.00 0.00 100 956.1
20260507213541 51 0 0.0 1.0 0.00 0.00 0.00 100 956.1
20260507213338 51 0 0.0 1.0 0.00 0.00 0.00 100 956.1
20260507213237 51 0 0.0 1.0 0.00 0.00 0.00 100 956.1
20260507213135 51 0 0.0 1.0 0.00 0.00 0.00 100 956.1
20260507212931 51 0 0.0 1.0 0.00 0.00 0.00 100 956.1
20260507212729 51 0 0.0 1.0 0.00 0.00 0.00 100 956.1
20260507212628 51 0 0.0 1.0 0.00 0.00 0.00 100 956.1
20260507212525 51 0 0.0 2.0 0.00 0.00 0.00 100 956.1
20260507212323 51 0 0.0 2.0 0.00 0.00 0.00 100 956.0
20260507212120 51 0 0.0 2.0 0.00 0.00 0.00 100 955.9
20260507212019 51 0 0.0 2.0 0.00 0.00 0.00 100 955.9
20260507211917 51 0 0.0 2.0 0.00 0.00 0.00 100 955.9
20260507211714 51 0 0.0 2.0 0.00 0.00 0.00 100 955.8
20260507211511 51 0 0.0 1.0 0.00 0.00 0.00 100 955.9
20260507211411 51 0 0.0 1.0 0.00 0.00 0.00 100 955.9
20260507211308 51 0 0.0 1.0 0.00 0.00 0.00 100 955.8
20260507211105 51 0 0.0 2.0 0.00 0.00 0.00 100 955.9
20260507210902 51 175 0.0 2.0 0.00 0.00 0.00 100 955.8
20260507210801 51 175 1.0 3.0 0.00 0.00 0.00 100 955.7
20260507210659 51 176 1.0 3.0 0.00 0.00 0.00 100 955.7
20260507210456 51 181 0.0 3.0 0.00 0.00 0.00 100 955.7
20260507210252 51 0 0.0 1.0 0.00 0.00 0.00 100 955.7
20260507210151 51 0 0.0 1.0 0.00 0.00 0.00 100 955.6
20260507210049 51 0 0.0 1.0 0.00 0.00 0.00 100 955.7
20260507205846 51 0 0.0 1.0 0.00 0.00 0.00 100 955.7
20260507205642 51 276 1.0 2.0 0.00 0.00 0.00 100 955.7
20260507205541 51 279 1.0 2.0 0.00 0.00 0.00 100 955.6
20260507205439 51 279 1.0 2.0 0.00 0.00 0.00 100 955.7
20260507205236 51 0 0.0 1.0 0.00 0.00 0.00 100 955.6
20260507205033 51 0 0.0 2.0 0.00 0.00 0.00 100 955.6
20260507204931 51 0 0.0 2.0 0.00 0.00 0.00 100 955.6
20260507204829 51 0 0.0 2.0 0.00 0.00 0.00 100 955.7
20260507204626 51 247 1.0 2.0 0.00 0.00 0.00 100 955.7
20260507204423 51 288 1.0 2.0 0.00 0.00 0.00 100 955.7
20260507204323 51 305 2.0 2.0 0.00 0.00 0.00 100 955.6
20260507204220 51 328 2.0 3.0 0.00 0.00 0.00 100 955.6
20260507204017 51 7 2.0 3.0 0.00 0.00 0.00 100 955.4
20260507203813 51 22 2.0 3.0 0.00 0.00 0.00 100 955.5
20260507203713 51 21 2.0 3.0 0.00 0.00 0.00 100 955.6
20260507203610 51 12 2.0 3.0 0.00 0.00 0.00 100 955.6
20260507203407 51 302 1.0 2.0 0.00 0.00 0.00 100 955.5
20260507203203 51 295 1.0 2.0 0.00 0.00 0.00 100 955.5
20260507203103 51 299 1.0 2.0 0.00 0.00 0.00 100 955.6
20260507203000 51 0 0.0 2.0 0.00 0.00 0.00 100 955.6
20260507202758 51 0 0.0 1.0 0.00 0.00 0.00 100 955.5
20260507202554 51 0 0.0 1.0 0.00 0.00 0.00 100 955.5
20260507202453 51 0 0.0 1.0 0.00 0.00 0.00 100 955.4
20260507202351 51 0 0.0 1.0 0.00 0.00 0.00 100 955.5
20260507202148 51 0 0.0 2.0 0.00 0.00 0.00 100 955.5
20260507201944 51 0 1.0 2.0 0.00 0.00 0.00 100 955.4
20260507201843 51 37 1.0 3.0 0.00 0.00 0.00 100 955.5
20260507201741 51 31 2.0 3.0 0.00 0.00 0.00 100 955.4
20260507201537 50 44 2.0 3.0 0.00 0.00 0.00 100 955.4
20260507201334 50 58 1.0 3.0 0.00 0.00 0.00 100 955.4
20260507201233 50 0 0.0 2.0 0.00 0.00 0.00 100 955.4
20260507201131 50 0 0.0 2.0 0.00 0.00 0.00 100 955.4
20260507200928 50 0 0.0 2.0 0.00 0.00 0.00 100 955.4
20260507200726 50 0 0.0 3.0 0.00 0.00 0.00 100 955.4
20260507200625 50 0 0.0 3.0 0.00 0.00 0.00 100 955.4
20260507200523 50 0 0.0 3.0 0.00 0.00 0.00 100 955.4
20260507200320 50 288 2.0 3.0 0.00 0.00 0.00 100 955.4
20260507200117 50 314 3.0 6.0 0.00 0.00 0.00 100 955.4
20260507200016 50 320 3.0 6.0 0.00 0.00 0.00 100 955.4
20260507195914 50 318 3.0 6.0 0.00 0.00 0.00 100 955.4
20260507195710 50 313 4.0 7.0 0.00 0.00 0.00 100 955.3
20260507195507 50 334 4.0 7.0 0.00 0.00 0.00 100 955.3
20260507195406 50 341 4.0 7.0 0.00 0.00 0.00 100 955.4
20260507195305 50 348 5.0 8.0 0.00 0.00 0.00 100 955.4
20260507195100 49 342 6.0 11.0 0.00 0.00 0.00 100 955.4
20260507194857 49 332 6.0 11.0 0.00 0.00 0.00 100 955.5
20260507194756 50 330 5.0 11.0 0.00 0.00 0.00 100 955.5
20260507194654 50 332 4.0 11.0 0.00 0.00 0.00 100 955.5
20260507194450 50 331 3.0 6.0 0.00 0.00 0.00 100 955.3
20260507194247 50 329 2.0 3.0 0.00 0.00 0.00 100 955.1
20260507194146 50 325 2.0 3.0 0.00 0.00 0.00 100 955.1
20260507194044 50 322 1.0 2.0 0.00 0.00 0.00 100 955.1
20260507193841 51 0 0.0 1.0 0.00 0.00 0.00 100 955.1
20260507193637 51 0 0.0 1.0 0.00 0.00 0.00 100 955.1
20260507193536 50 0 0.0 1.0 0.00 0.00 0.00 100 955.1
20260507193434 50 0 0.0 1.0 0.00 0.00 0.00 100 955.1
20260507193231 51 0 0.0 1.0 0.00 0.00 0.00 100 955.0
20260507193028 51 0 0.0 1.0 0.00 0.00 0.00 100 955.1
20260507192927 51 0 0.0 1.0 0.00 0.00 0.00 100 955.1
20260507192825 50 0 0.0 1.0 0.00 0.00 0.00 100 955.2
20260507192621 50 0 0.0 1.0 0.00 0.00 0.00 100 955.2
20260507192419 50 0 0.0 1.0 0.00 0.00 0.00 100 955.1
20260507192318 50 0 0.0 1.0 0.00 0.00 0.00 100 955.1
20260507192215 50 0 0.0 1.0 0.00 0.00 0.00 100 955.1
20260507192011 50 303 1.0 2.0 0.00 0.00 0.00 100 955.1
20260507191808 50 313 1.0 2.0 0.00 0.00 0.00 100 955.1
20260507191707 50 309 1.0 2.0 0.00 0.00 0.00 100 955.0
20260507191605 50 306 1.0 2.0 0.00 0.00 0.00 100 955.1
20260507191402 50 306 2.0 4.0 0.00 0.00 0.00 100 955.1
20260507191159 50 306 3.0 4.0 0.00 0.00 0.00 100 955.0
20260507191058 50 303 3.0 4.0 0.00 0.00 0.00 100 955.0
20260507190943 50 302 2.0 4.0 0.00 0.00 0.00 100 955.1
20260507190739 50 306 2.0 3.0 0.00 0.00 0.00 100 955.1
20260507190536 50 315 2.0 4.0 0.00 0.00 0.00 100 955.1
20260507190435 50 319 2.0 4.0 0.00 0.00 0.00 100 955.0
20260507190333 50 323 2.0 4.0 0.00 0.00 0.00 100 955.0
20260507190130 50 330 2.0 4.0 0.00 0.00 0.00 100 955.0
20260507185927 50 328 2.0 4.0 0.00 0.00 0.00 100 955.0
20260507185826 50 329 2.0 4.0 0.00 0.00 0.00 100 955.0
20260507185724 50 331 2.0 4.0 0.00 0.00 0.00 100 955.0
20260507185520 50 333 1.0 2.0 0.00 0.00 0.00 100 954.9
20260507185317 50 332 1.0 2.0 0.00 0.00 0.00 100 954.8
20260507185216 50 337 1.0 2.0 0.00 0.00 0.00 100 954.8
20260507185114 50 343 2.0 3.0 0.00 0.00 0.00 100 954.7
20260507184911 50 355 2.0 3.0 0.00 0.00 0.00 100 954.8
20260507184708 50 349 3.0 4.0 0.00 0.00 0.00 100 954.7
20260507184607 50 342 3.0 4.0 0.00 0.00 0.00 100 954.7
20260507184505 50 331 2.0 4.0 0.00 0.00 0.00 100 954.7
20260507184302 51 305 1.0 3.0 0.00 0.00 0.00 100 954.7
20260507184059 51 0 1.0 3.0 0.00 0.00 0.00 100 954.7
20260507183957 51 187 1.0 3.0 0.00 0.00 0.00 100 954.7
20260507183855 51 184 1.0 3.0 0.00 0.00 0.00 100 954.6
20260507183652 51 171 2.0 4.0 0.00 0.00 0.00 100 954.5
20260507183449 51 168 2.0 4.0 0.00 0.00 0.00 100 954.4
20260507183349 51 171 2.0 4.0 0.00 0.00 0.00 100 954.5
20260507183246 51 178 1.0 3.0 0.00 0.00 0.00 100 954.5
20260507183042 51 0 1.0 3.0 0.00 0.00 0.00 100 954.4
20260507182839 51 132 1.0 3.0 0.00 0.00 0.00 100 954.6
20260507182739 51 130 2.0 3.0 0.00 0.00 0.00 100 954.5
20260507182637 51 138 2.0 3.0 0.00 0.00 0.00 100 954.5
20260507182433 51 149 2.0 3.0 0.00 0.00 0.00 100 954.5
20260507182230 51 148 2.0 4.0 0.00 0.00 0.00 100 954.6
20260507182130 51 143 2.0 4.0 0.00 0.00 0.00 100 954.6
20260507182027 51 144 2.0 3.0 0.00 0.00 0.00 100 954.4
20260507181824 51 0 0.0 3.0 0.00 0.00 0.00 100 954.5
20260507181620 51 0 0.0 1.0 0.00 0.00 0.00 100 954.5
20260507181519 51 0 0.0 1.0 0.00 0.00 0.00 100 954.5
20260507181417 51 0 0.0 1.0 0.00 0.00 0.00 100 954.3
20260507181214 51 323 1.0 2.0 0.00 0.00 0.00 100 954.4
20260507181011 51 319 1.0 3.0 0.00 0.00 0.00 100 954.4
20260507180909 51 325 2.0 3.0 0.00 0.00 0.00 100 954.4
20260507180807 51 344 1.0 3.0 0.00 0.00 0.00 100 954.4
20260507180604 51 48 2.0 3.0 0.00 0.00 0.00 100 954.3
20260507180400 51 69 2.0 3.0 0.00 0.00 0.00 100 954.3
20260507180300 51 68 2.0 3.0 0.00 0.00 0.00 100 954.3
20260507180157 51 68 2.0 3.0 0.00 0.00 0.00 100 954.4
20260507175954 51 60 2.0 3.0 0.00 0.00 0.00 100 954.5
20260507175751 52 80 2.0 3.0 0.00 0.00 0.00 100 954.2
20260507175649 52 84 1.0 3.0 0.00 0.00 0.00 100 954.2
20260507175547 52 98 1.0 3.0 0.00 0.00 0.00 100 954.2
20260507175344 52 0 0.0 2.0 0.00 0.00 0.00 100 954.3
20260507175140 52 0 0.0 1.0 0.00 0.00 0.00 100 954.3
20260507175040 52 0 0.0 1.0 0.00 0.00 0.00 100 954.3
20260507174937 52 0 0.0 1.0 0.00 0.00 0.00 100 954.2
20260507174734 52 0 0.0 1.0 0.00 0.00 0.00 100 954.3
20260507174531 52 0 0.0 1.0 0.00 0.00 0.00 100 954.2
20260507174430 53 0 0.0 1.0 0.00 0.00 0.00 100 954.2
20260507174328 53 0 0.0 3.0 0.00 0.00 0.00 100 954.2
20260507174125 52 0 0.0 3.0 0.00 0.00 0.00 100 954.3
20260507173922 52 0 0.0 2.0 0.00 0.00 0.00 100 954.4
20260507173822 52 0 0.0 2.0 0.00 0.00 0.00 100 954.4
20260507173719 52 172 1.0 4.0 0.00 0.00 0.00 100 954.3
20260507173516 52 169 1.0 4.0 0.00 0.00 0.00 100 954.2
20260507173313 52 174 1.0 4.0 0.00 0.00 0.00 100 954.3
20260507173212 52 174 1.0 4.0 0.00 0.00 0.00 100 954.3
20260507173110 52 175 1.0 5.0 0.00 0.00 0.00 100 954.3
20260507172907 52 175 1.0 5.0 0.00 0.00 0.00 100 954.4
20260507172704 52 180 1.0 3.0 0.00 0.00 0.00 100 954.3
20260507172603 52 0 1.0 3.0 0.00 0.00 0.00 100 954.3
20260507172501 52 0 0.0 3.0 0.00 0.00 0.00 100 954.3
20260507172258 52 0 1.0 3.0 0.00 0.00 0.00 100 954.3
20260507172054 52 172 1.0 4.0 0.00 0.00 0.00 100 954.2
20260507171953 52 172 1.0 4.0 0.00 0.00 0.00 100 954.2
20260507171851 52 171 2.0 4.0 0.00 0.00 0.00 100 954.2
20260507171647 52 175 2.0 6.0 0.00 0.00 0.00 100 954.2
20260507171445 52 176 2.0 7.0 0.00 0.00 0.00 100 954.2
20260507171344 52 170 3.0 8.0 0.00 0.00 0.00 100 954.2
20260507171241 52 166 5.0 10.0 0.00 0.00 0.00 100 954.2
20260507171038 52 163 7.0 11.0 0.00 0.00 0.00 100 954.2
20260507170834 51 159 7.0 11.0 0.00 0.00 0.00 100 954.2
20260507170734 51 158 6.0 11.0 0.00 0.00 0.00 100 954.2
20260507170631 51 156 5.0 11.0 0.00 0.00 0.00 100 954.3
20260507170428 51 156 4.0 8.0 0.00 0.00 0.00 100 954.1
20260507170225 51 164 2.0 5.0 0.00 0.00 0.00 100 954.1
20260507170124 51 164 2.0 4.0 0.00 0.00 0.00 100 954.1
20260507170022 51 155 2.0 5.0 0.00 0.00 0.00 100 954.2
20260507165818 51 139 3.0 5.0 0.00 0.00 0.00 100 954.1
20260507165616 51 142 2.0 4.0 0.00 0.00 0.00 100 954.1
20260507165514 51 147 2.0 4.0 0.00 0.00 0.00 100 954.1
20260507165412 51 152 2.0 4.0 0.00 0.00 0.00 100 954.0
20260507165208 51 159 2.0 8.0 0.00 0.00 0.00 100 954.1
20260507165005 51 152 5.0 11.0 0.00 0.00 0.00 100 954.1
20260507164905 51 150 6.0 11.0 0.00 0.00 0.00 100 954.0
20260507164802 51 146 6.0 11.0 0.00 0.00 0.00 100 954.0
20260507164559 51 146 5.0 9.0 0.00 0.00 0.00 100 953.9
20260507164356 51 140 6.0 9.0 0.00 0.00 0.00 100 953.9
20260507164256 51 137 6.0 9.0 0.00 0.00 0.00 100 953.9
20260507164154 51 135 6.0 9.0 0.00 0.00 0.00 100 953.9
20260507163951 51 146 4.0 7.0 0.00 0.00 0.00 100 954.0
20260507163748 51 157 2.0 7.0 0.00 0.00 0.00 100 953.9
20260507163648 51 172 2.0 5.0 0.00 0.00 0.00 100 953.9
20260507163546 51 181 2.0 7.0 0.00 0.00 0.00 100 953.9
20260507163342 52 203 2.0 7.0 0.00 0.00 0.00 100 953.9
20260507163139 52 247 1.0 6.0 0.00 0.00 0.00 100 953.9
20260507163025 52 0 1.0 6.0 0.00 0.00 0.00 100 953.8
20260507162923 52 246 1.0 7.0 0.00 0.00 0.00 100 953.8
20260507162720 52 241 1.0 7.0 0.00 0.00 0.00 100 953.9
20260507162517 51 236 1.0 6.0 0.00 0.00 0.00 100 953.9
20260507162416 51 232 2.0 6.0 0.00 0.00 0.00 100 953.9
20260507162314 51 231 1.0 6.0 0.00 0.00 0.00 100 953.9
20260507162110 51 237 1.0 5.0 0.00 0.00 0.00 100 954.0
20260507161907 51 238 1.0 9.0 0.00 0.00 0.00 100 954.0
20260507161806 51 236 2.0 9.0 0.00 0.00 0.00 100 954.0
20260507161704 51 232 2.0 9.0 0.00 0.00 0.00 100 954.0
20260507161501 51 223 2.0 9.0 0.00 0.00 0.00 100 954.0
20260507161258 51 222 2.0 8.0 0.00 0.00 0.00 100 954.0
20260507161158 51 223 2.0 8.0 0.00 0.00 0.00 100 954.2
20260507161055 51 239 1.0 8.0 0.00 0.00 0.00 100 954.1
20260507160852 51 288 2.0 5.0 0.00 0.00 0.00 100 954.1
20260507160649 51 281 3.0 7.0 0.00 0.00 0.00 100 954.2
20260507160548 51 282 3.0 7.0 0.00 0.00 0.00 100 954.3
20260507160446 51 264 4.0 7.0 0.00 0.00 0.00 100 954.3
20260507160243 51 260 4.0 10.0 0.00 0.00 0.00 100 954.3
20260507160040 51 251 4.0 10.0 0.00 0.00 0.00 100 954.3
20260507155939 51 231 3.0 10.0 0.00 0.00 0.00 100 954.4
20260507155837 51 222 2.0 10.0 0.00 0.00 0.00 100 954.3
20260507155634 51 236 4.0 14.0 0.00 0.00 0.00 100 954.3
20260507155431 52 250 7.0 18.0 0.00 0.00 0.00 100 954.4
20260507155330 52 261 8.0 19.0 0.00 0.00 0.00 100 954.4
20260507155228 52 262 9.0 18.0 0.00 0.00 0.00 100 954.4
20260507155024 53 262 10.0 18.0 0.00 0.00 0.00 100 954.3
20260507154821 53 254 8.0 18.0 0.00 0.00 0.00 100 954.4
20260507154720 53 252 6.0 15.0 0.00 0.00 0.00 100 954.4
20260507154617 53 252 4.0 13.0 0.00 0.00 0.00 100 954.3
20260507154414 53 255 3.0 10.0 0.00 0.00 0.00 100 954.2
20260507154211 53 262 3.0 6.0 0.00 0.00 0.00 100 954.1
20260507154111 53 273 4.0 6.0 0.00 0.00 0.00 100 954.0
20260507154010 53 283 4.0 6.0 0.00 0.00 0.00 100 954.0
20260507153805 53 289 4.0 6.0 0.00 0.00 0.00 100 953.9
20260507153602 53 290 3.0 5.0 0.00 0.00 0.00 100 953.9
20260507153502 53 284 3.0 5.0 0.00 0.00 0.00 100 953.9
20260507153359 53 277 3.0 5.0 0.00 0.00 0.00 100 953.9
20260507153156 53 264 2.0 5.0 0.00 0.00 0.00 100 953.9
20260507152953 53 0 1.0 5.0 0.00 0.00 0.00 100 954.0
20260507152852 53 0 1.0 4.0 0.00 0.00 0.00 100 953.9
20260507152750 53 0 1.0 4.0 0.00 0.00 0.00 100 953.9
20260507152547 53 0 1.0 4.0 0.00 0.00 0.00 100 953.9
20260507152344 53 295 1.0 4.0 0.00 0.00 0.00 100 953.9
20260507152243 53 307 2.0 8.0 0.00 0.00 0.00 100 954.0
20260507152140 53 316 3.0 8.0 0.00 0.00 0.00 100 953.9
20260507151937 53 339 4.0 10.0 0.00 0.00 0.00 100 953.9
20260507151734 53 343 6.0 10.0 0.00 0.00 0.00 100 953.8
20260507151633 53 342 7.0 12.0 0.00 0.00 0.00 100 953.9
20260507151531 53 343 8.0 14.0 0.00 0.00 0.00 100 953.9
20260507151328 54 323 11.0 23.0 0.00 0.00 0.00 100 953.8
20260507151125 54 308 13.0 23.0 0.00 0.00 0.00 100 953.8
20260507151024 55 304 13.0 23.0 0.00 0.00 0.00 100 953.7
20260507150921 55 306 12.0 16.0 0.00 0.00 0.00 100 953.8
20260507150719 55 302 12.0 16.0 0.00 0.00 0.00 100 953.7
20260507150516 55 300 8.0 14.0 0.00 0.00 0.00 100 953.8
20260507150414 55 299 7.0 14.0 0.00 0.00 0.00 100 953.8
20260507150312 55 299 5.0 14.0 0.00 0.00 0.00 100 953.7
20260507150109 56 295 3.0 5.0 0.00 0.00 0.00 100 953.7
20260507145907 57 278 1.0 3.0 0.00 0.00 0.00 100 953.7
20260507145805 57 0 0.0 3.0 0.00 0.00 0.00 100 953.7
20260507145703 57 0 0.0 1.0 0.00 0.00 0.00 100 953.6
20260507145459 57 0 0.0 2.0 0.00 0.00 0.00 100 953.6
20260507145256 57 0 0.0 2.0 0.00 0.00 0.00 100 953.5
20260507145156 57 0 0.0 4.0 0.00 0.00 0.00 100 953.5
20260507145053 57 0 0.0 4.0 0.00 0.00 0.00 100 953.6
20260507144850 57 191 0.0 4.0 0.00 0.00 0.00 100 953.5
20260507144646 57 0 0.0 2.0 0.00 0.00 0.00 100 953.6
20260507144546 57 0 0.0 2.0 0.00 0.00 0.00 100 953.6
20260507144444 57 0 0.0 2.0 0.00 0.00 0.00 100 953.5
20260507144241 57 0 0.0 2.0 0.00 0.00 0.00 100 953.5
20260507144038 57 0 0.0 2.0 0.00 0.00 0.00 100 953.5
20260507143937 57 0 1.0 5.0 0.00 0.00 0.00 100 953.5
20260507143835 57 0 0.0 5.0 0.00 0.00 0.00 100 953.5
20260507143633 57 0 1.0 5.0 0.00 0.00 0.00 100 953.4
20260507143429 57 0 1.0 3.0 0.00 0.00 0.00 100 953.6
20260507143328 57 0 1.0 3.0 0.00 0.00 0.00 100 953.6
20260507143226 57 220 1.0 4.0 0.00 0.00 0.00 100 953.6
20260507143023 56 0 1.0 4.0 0.00 0.00 0.00 100 953.5
20260507142819 56 0 1.0 4.0 0.00 0.00 0.00 100 953.6
20260507142719 56 0 1.0 3.0 0.00 0.00 0.00 100 953.6
20260507142617 56 0 1.0 3.0 0.00 0.00 0.00 100 953.5
20260507142414 56 0 0.0 3.0 0.00 0.00 0.00 100 953.6
20260507142211 55 0 1.0 3.0 0.00 0.00 0.00 100 953.6
20260507142109 55 0 1.0 5.0 0.00 0.00 0.00 100 953.6
20260507142007 55 0 1.0 5.0 0.00 0.00 0.00 100 953.6
20260507141804 55 184 1.0 6.0 0.00 0.00 0.00 100 953.6
20260507141602 55 0 1.0 6.0 0.00 0.00 0.00 100 953.6
20260507141501 55 0 1.0 4.0 0.00 0.00 0.00 100 953.6
20260507141358 55 0 0.0 4.0 0.00 0.00 0.00 100 953.6
20260507141155 55 0 0.0 3.0 0.00 0.00 0.00 100 953.6
20260507140952 55 0 1.0 3.0 0.00 0.00 0.00 100 953.5
20260507140851 55 0 1.0 3.0 0.00 0.00 0.00 100 953.5
20260507140749 55 0 1.0 3.0 0.00 0.00 0.00 100 953.5
20260507140546 55 122 2.0 4.0 0.00 0.00 0.00 100 953.5
20260507140342 55 143 2.0 5.0 0.00 0.00 0.00 100 953.6
20260507140242 55 149 2.0 5.0 0.00 0.00 0.00 100 953.5
20260507140052 55 148 3.0 5.0 0.00 0.00 0.00 100 953.8
20260507135849 56 124 3.0 4.0 0.00 0.00 0.00 100 953.7
20260507135748 56 122 2.0 4.0 0.00 0.00 0.00 100 953.7
20260507135646 56 120 2.0 4.0 0.00 0.00 0.00 100 953.7
20260507135443 56 128 1.0 3.0 0.00 0.00 0.00 100 953.8
20260507135240 57 163 1.0 2.0 0.00 0.00 0.00 100 953.8
20260507135139 57 173 1.0 3.0 0.00 0.00 0.00 100 953.8
20260507135034 57 169 1.0 3.0 0.00 0.00 0.00 100 953.8
20260507134830 57 147 1.0 3.0 0.00 0.00 0.00 100 953.7
20260507134627 57 0 1.0 2.0 0.00 0.00 0.00 100 953.7
20260507134513 57 159 1.0 2.0 0.00 0.00 0.00 100 953.8
20260507134410 57 157 1.0 2.0 0.00 0.00 0.00 100 953.8
20260507134207 57 162 1.0 2.0 0.00 0.00 0.00 100 953.8
20260507134005 57 163 1.0 2.0 0.00 0.00 0.00 100 953.7
20260507133904 57 136 1.0 2.0 0.00 0.00 0.00 100 953.7
20260507133801 57 132 1.0 2.0 0.00 0.00 0.00 100 953.7
20260507133558 57 138 2.0 3.0 0.00 0.00 0.00 100 953.6
20260507133355 57 104 1.0 3.0 0.00 0.00 0.00 100 953.6
20260507133254 57 75 1.0 2.0 0.00 0.00 0.00 100 953.6
20260507133152 57 68 1.0 3.0 0.00 0.00 0.00 100 953.7
20260507132949 57 98 2.0 5.0 0.00 0.00 0.00 100 953.6
20260507132747 57 141 3.0 6.0 0.00 0.00 0.00 100 953.8
20260507132646 57 147 4.0 6.0 0.00 0.00 0.00 100 953.8
20260507132544 57 150 3.0 6.0 0.00 0.00 0.00 100 953.7
20260507132341 57 132 2.0 6.0 0.00 0.00 0.00 100 953.7
20260507132137 57 74 2.0 6.0 0.00 0.00 0.00 100 953.6
20260507132037 57 71 3.0 6.0 0.00 0.00 0.00 100 953.7
20260507131934 57 63 3.0 7.0 0.00 0.00 0.00 100 953.7
20260507131732 57 43 4.0 7.0 0.00 0.00 0.00 100 953.7
20260507131529 58 30 4.0 8.0 0.00 0.00 0.00 100 953.7
20260507131429 58 28 4.0 8.0 0.00 0.00 0.00 100 953.7
20260507131327 58 29 4.0 8.0 0.00 0.00 0.00 100 953.7
20260507131123 58 30 4.0 6.0 0.00 0.00 0.00 100 953.5
20260507130920 58 26 3.0 6.0 0.00 0.00 0.00 100 953.6
20260507130819 58 30 4.0 6.0 0.00 0.00 0.00 100 953.5
20260507130717 58 34 4.0 6.0 0.00 0.00 0.00 100 953.5
20260507130514 59 31 4.0 6.0 0.00 0.00 0.00 100 953.5
20260507130311 59 24 3.0 6.0 0.00 0.00 0.00 100 953.5
20260507130210 59 13 3.0 6.0 0.00 0.00 0.00 100 953.5
20260507130107 59 19 3.0 6.0 0.00 0.00 0.00 100 953.5
20260507125904 59 21 3.0 6.0 0.00 0.00 0.00 100 953.6
20260507125701 59 31 3.0 5.0 0.00 0.00 0.00 100 953.5
20260507125600 59 32 3.0 4.0 0.00 0.00 0.00 100 953.5
20260507125458 59 40 3.0 5.0 0.00 0.00 0.00 100 953.5
20260507125254 59 53 3.0 6.0 0.00 0.00 0.00 100 953.6
20260507125051 59 68 3.0 6.0 0.00 0.00 0.00 100 953.5
20260507124950 59 76 3.0 6.0 0.00 0.00 0.00 100 953.5
20260507124844 59 66 3.0 6.0 0.00 0.00 0.00 100 953.5
20260507124642 59 62 5.0 8.0 0.00 0.00 0.00 100 953.5
20260507124439 59 57 5.0 8.0 0.00 0.00 0.00 100 953.5
20260507124338 59 57 5.0 7.0 0.00 0.00 0.00 100 953.5
20260507124237 59 55 4.0 7.0 0.00 0.00 0.00 100 953.6
20260507124033 60 65 3.0 5.0 0.00 0.00 0.00 100 953.6
20260507123831 60 50 3.0 5.0 0.00 0.00 0.00 100 953.6
20260507123731 60 48 2.0 5.0 0.00 0.00 0.00 100 953.6
20260507123628 60 48 3.0 6.0 0.00 0.00 0.00 100 953.5
20260507123425 60 47 4.0 6.0 0.00 0.00 0.00 100 953.5
20260507123222 60 47 5.0 8.0 0.00 0.00 0.00 100 953.4
20260507123121 59 50 5.0 8.0 0.00 0.00 0.00 100 953.4
20260507123019 59 55 5.0 8.0 0.00 0.00 0.00 100 953.5
20260507122815 60 80 4.0 7.0 0.00 0.00 0.00 100 953.5
20260507122612 60 111 4.0 7.0 0.00 0.00 0.00 100 953.5
20260507122512 60 128 4.0 8.0 0.00 0.00 0.00 100 953.4
20260507122410 60 129 4.0 8.0 0.00 0.00 0.00 100 953.4
20260507122206 60 107 3.0 8.0 0.00 0.00 0.00 100 953.4
20260507122004 61 65 3.0 7.0 0.00 0.00 0.00 100 953.3
20260507121902 61 60 3.0 7.0 0.00 0.00 0.00 100 953.3
20260507121800 61 51 3.0 4.0 0.00 0.00 0.00 100 953.4
20260507121557 61 19 3.0 5.0 0.00 0.00 0.00 100 953.3
20260507121354 60 7 4.0 5.0 0.00 0.00 0.00 100 953.3
20260507121253 60 8 4.0 6.0 0.00 0.00 0.00 100 953.3
20260507121151 60 1 4.0 6.0 0.00 0.00 0.00 100 953.3
20260507120948 60 357 4.0 6.0 0.00 0.00 0.00 100 953.4
20260507120745 60 357 5.0 7.0 0.00 0.00 0.00 100 953.4
20260507120645 60 354 5.0 7.0 0.00 0.00 0.00 100 953.3
20260507120542 60 349 5.0 7.0 0.00 0.00 0.00 100 953.3
20260507120339 60 345 6.0 8.0 0.00 0.00 0.00 100 953.4
20260507120136 60 345 6.0 8.0 0.00 0.00 0.00 100 953.4
20260507120036 60 341 6.0 8.0 0.00 0.00 0.00 100 953.4
20260507115934 60 339 5.0 7.0 0.00 0.00 0.00 100 953.4
20260507115730 61 330 5.0 8.0 0.00 0.00 0.00 100 953.4
20260507115527 61 332 5.0 8.0 0.00 0.00 0.00 100 953.4
20260507115426 61 331 5.0 8.0 0.00 0.00 0.00 100 953.3
20260507115324 61 330 5.0 7.0 0.00 0.00 0.00 100 953.4
20260507115121 61 324 4.0 6.0 0.00 0.00 0.00 100 953.3
20260507114918 62 321 3.0 6.0 0.00 0.00 0.00 100 953.4
20260507114817 62 317 3.0 5.0 0.00 0.00 0.00 100 953.4
20260507114711 62 311 3.0 5.0 0.00 0.00 0.00 100 953.3
20260507114508 62 301 4.0 7.0 0.00 0.00 0.00 100 953.3
20260507114305 62 303 4.0 7.0 0.00 0.00 0.00 100 953.3
20260507114204 62 302 4.0 7.0 0.00 0.00 0.00 100 953.4
20260507114102 62 306 4.0 8.0 0.00 0.00 0.00 100 953.3
20260507113858 62 316 5.0 8.0 0.00 0.00 0.00 100 953.4
20260507113655 62 318 3.0 7.0 0.00 0.00 0.00 100 953.3
20260507113555 62 319 2.0 4.0 0.00 0.00 0.00 100 953.3
20260507113453 62 321 2.0 4.0 0.00 0.00 0.00 100 953.3
20260507113249 62 344 2.0 4.0 0.00 0.00 0.00 100 953.4
20260507113046 62 21 2.0 4.0 0.00 0.00 0.00 100 953.3
20260507112945 62 81 2.0 5.0 0.00 0.00 0.00 100 953.4
20260507112843 62 107 3.0 6.0 0.00 0.00 0.00 100 953.2
20260507112640 62 130 3.0 6.0 0.00 0.00 0.00 100 953.4
20260507112437 62 128 3.0 8.0 0.00 0.00 0.00 100 953.3
20260507112336 62 116 3.0 8.0 0.00 0.00 0.00 100 953.2
20260507112233 62 90 3.0 8.0 0.00 0.00 0.00 100 953.3
20260507112030 63 342 2.0 6.0 0.00 0.00 0.00 100 953.3
20260507111828 64 290 1.0 6.0 0.00 0.00 0.00 100 953.2
20260507111727 64 0 1.0 5.0 0.00 0.00 0.00 100 953.3
20260507111625 64 0 1.0 5.0 0.00 0.00 0.00 100 953.3
20260507111421 64 218 2.0 6.0 0.00 0.00 0.00 100 953.2
20260507111218 63 275 3.0 7.0 0.00 0.00 0.00 100 953.2
20260507111117 63 279 3.0 7.0 0.00 0.00 0.00 100 953.3
20260507111015 63 285 4.0 7.0 0.00 0.00 0.00 100 953.2
20260507110811 63 299 3.0 6.0 0.00 0.00 0.00 100 953.2
20260507110557 62 320 3.0 6.0 0.00 0.00 0.00 100 953.0
20260507110456 62 307 4.0 7.0 0.00 0.00 0.00 100 953.0
20260507110354 62 295 4.0 7.0 0.00 0.00 0.00 100 953.1
20260507110150 62 289 5.0 8.0 0.00 0.00 0.00 100 953.1
20260507105947 62 289 5.0 8.0 0.00 0.00 0.00 100 953.1
20260507105847 62 299 4.0 8.0 0.00 0.00 0.00 100 953.1
20260507105745 62 302 4.0 7.0 0.00 0.00 0.00 100 953.1
20260507105541 62 317 6.0 11.0 0.00 0.00 0.00 100 953.1
20260507105338 62 314 5.0 11.0 0.00 0.00 0.00 100 953.1
20260507105238 62 309 4.0 11.0 0.00 0.00 0.00 100 953.1
20260507105136 62 300 3.0 10.0 0.00 0.00 0.00 100 953.0
20260507104933 62 288 4.0 8.0 0.00 0.00 0.00 100 953.2
20260507104729 62 288 4.0 8.0 0.00 0.00 0.00 100 953.1
20260507104629 62 288 4.0 8.0 0.00 0.00 0.00 100 953.1
20260507104523 62 262 4.0 16.0 0.00 0.00 0.00 100 953.1
20260507104320 63 254 4.0 16.0 0.00 0.00 0.00 100 953.1
20260507104117 63 264 3.0 12.0 0.00 0.00 0.00 100 953.1
20260507104016 63 265 3.0 9.0 0.00 0.00 0.00 100 953.1
20260507103913 62 281 4.0 10.0 0.00 0.00 0.00 100 953.1
20260507103710 62 285 5.0 10.0 0.00 0.00 0.00 100 953.0
20260507103507 62 299 4.0 8.0 0.00 0.00 0.00 100 953.0
20260507103406 62 301 4.0 7.0 0.00 0.00 0.00 100 952.9
20260507103304 62 295 5.0 8.0 0.00 0.00 0.00 100 953.1
20260507103100 62 288 6.0 12.0 0.00 0.00 0.00 100 952.9
20260507102857 62 290 7.0 12.0 0.00 0.00 0.00 100 952.9
20260507102757 62 286 7.0 12.0 0.00 0.00 0.00 100 952.9
20260507102655 62 285 8.0 11.0 0.00 0.00 0.00 100 952.9
20260507102451 63 282 6.0 11.0 0.00 0.00 0.00 100 952.9
20260507102249 64 266 3.0 11.0 0.00 0.00 0.00 100 952.9
20260507102148 65 0 2.0 4.0 0.00 0.00 0.00 100 952.8
20260507102046 65 0 1.0 4.0 0.00 0.00 0.00 100 953.0
20260507101843 65 0 1.0 4.0 0.00 0.00 0.00 100 952.8
20260507101640 65 0 1.0 4.0 0.00 0.00 0.00 100 952.8
20260507101539 65 0 1.0 3.0 0.00 0.00 0.00 100 952.8
20260507101437 65 0 1.0 3.0 0.00 0.00 0.00 100 952.8
20260507101235 64 279 2.0 6.0 0.00 0.00 0.00 100 952.7
20260507101031 63 284 4.0 7.0 0.00 0.00 0.00 100 952.7
20260507100931 63 285 5.0 8.0 0.00 0.00 0.00 100 952.8
20260507100828 63 287 6.0 8.0 0.00 0.00 0.00 100 952.8
20260507100625 64 286 4.0 8.0 0.00 0.00 0.00 100 952.7
20260507100422 64 258 2.0 7.0 0.00 0.00 0.00 100 952.7
20260507100321 64 235 2.0 8.0 0.00 0.00 0.00 100 952.7
20260507100219 64 237 2.0 9.0 0.00 0.00 0.00 100 952.8
20260507100016 64 243 3.0 10.0 0.00 0.00 0.00 100 952.7
20260507095813 64 234 3.0 10.0 0.00 0.00 0.00 100 952.8
20260507095712 64 228 2.0 10.0 0.00 0.00 0.00 100 952.8
20260507095610 64 235 2.0 10.0 0.00 0.00 0.00 100 952.7
20260507095406 64 259 3.0 12.0 0.00 0.00 0.00 100 952.8
20260507095203 64 264 5.0 12.0 0.00 0.00 0.00 100 952.6
20260507095103 64 262 6.0 12.0 0.00 0.00 0.00 100 952.6
20260507095000 64 257 4.0 11.0 0.00 0.00 0.00 100 952.7
20260507094757 65 241 2.0 10.0 0.00 0.00 0.00 100 952.6
20260507094554 66 230 1.0 10.0 0.00 0.00 0.00 100 952.6
20260507094454 66 235 1.0 4.0 0.00 0.00 0.00 100 952.8
20260507094348 66 240 1.0 4.0 0.00 0.00 0.00 100 952.7
20260507094144 66 259 2.0 8.0 0.00 0.00 0.00 100 952.7
20260507093942 65 261 2.0 9.0 0.00 0.00 0.00 100 952.6
20260507093841 65 253 3.0 10.0 0.00 0.00 0.00 100 952.6
20260507093739 65 242 3.0 10.0 0.00 0.00 0.00 100 952.7
20260507093536 65 231 2.0 10.0 0.00 0.00 0.00 100 952.6
20260507093333 65 230 2.0 8.0 0.00 0.00 0.00 100 952.7
20260507093232 65 223 2.0 8.0 0.00 0.00 0.00 100 952.7
20260507093131 65 234 2.0 8.0 0.00 0.00 0.00 100 952.6
20260507092926 65 251 2.0 8.0 0.00 0.00 0.00 100 952.6
20260507092723 64 268 4.0 8.0 0.00 0.00 0.00 100 952.6
20260507092622 64 268 4.0 8.0 0.00 0.00 0.00 100 952.6
20260507092519 63 261 3.0 8.0 0.00 0.00 0.00 100 952.6
20260507092317 64 238 2.0 8.0 0.00 0.00 0.00 100 952.6
20260507092114 64 253 3.0 12.0 0.00 0.00 0.00 100 952.6
20260507092013 63 256 3.0 12.0 0.00 0.00 0.00 100 952.6
20260507091911 64 254 3.0 12.0 0.00 0.00 0.00 100 952.5
20260507091708 63 248 4.0 13.0 0.00 0.00 0.00 100 952.6
20260507091505 63 256 4.0 13.0 0.00 0.00 0.00 100 952.6
20260507091405 63 257 3.0 9.0 0.00 0.00 0.00 100 952.7
20260507091302 63 258 3.0 7.0 0.00 0.00 0.00 100 952.6
20260507091100 63 226 2.0 5.0 0.00 0.00 0.00 100 952.6
20260507090857 63 252 2.0 10.0 0.00 0.00 0.00 100 952.6
20260507090756 63 245 2.0 10.0 0.00 0.00 0.00 100 952.5
20260507090655 63 237 3.0 10.0 0.00 0.00 0.00 100 952.6
20260507090451 63 220 2.0 9.0 0.00 0.00 0.00 100 952.5
20260507090248 63 227 2.0 9.0 0.00 0.00 0.00 100 952.6
20260507090148 63 237 1.0 9.0 0.00 0.00 0.00 100 952.5
20260507090045 64 0 1.0 7.0 0.00 0.00 0.00 100 952.5
20260507085842 64 0 2.0 7.0 0.00 0.00 0.00 100 952.5
20260507085639 63 218 2.0 6.0 0.00 0.00 0.00 100 952.5
20260507085539 63 233 2.0 6.0 0.00 0.00 0.00 100 952.4
20260507085436 63 241 2.0 6.0 0.00 0.00 0.00 100 952.4
20260507085233 63 253 2.0 8.0 0.00 0.00 0.00 100 952.3
20260507085030 63 0 2.0 8.0 0.00 0.00 0.00 100 952.3
20260507084929 63 236 2.0 7.0 0.00 0.00 0.00 100 952.4
20260507084827 63 239 2.0 8.0 0.00 0.00 0.00 100 952.3
20260507084624 63 227 2.0 8.0 0.00 0.00 0.00 100 952.4
20260507084421 63 216 2.0 8.0 0.00 0.00 0.00 100 952.3
20260507084320 63 214 1.0 8.0 0.00 0.00 0.00 100 952.3
20260507084215 64 0 1.0 8.0 0.00 0.00 0.00 100 952.5
20260507084012 64 0 2.0 9.0 0.00 0.00 0.00 100 952.3
20260507083808 64 240 2.0 9.0 0.00 0.00 0.00 100 952.4
20260507083707 64 233 2.0 9.0 0.00 0.00 0.00 100 952.3
20260507083605 64 222 2.0 7.0 0.00 0.00 0.00 100 952.3
20260507083402 64 215 2.0 8.0 0.00 0.00 0.00 100 952.3
20260507083159 64 222 2.0 8.0 0.00 0.00 0.00 100 952.2
20260507083059 64 231 2.0 8.0 0.00 0.00 0.00 100 952.2
20260507082956 63 0 2.0 8.0 0.00 0.00 0.00 100 952.1
20260507082753 63 225 2.0 8.0 0.00 0.00 0.00 100 952.2
20260507082540 63 221 2.0 11.0 0.00 0.00 0.00 100 952.0
20260507082439 63 226 2.0 11.0 0.00 0.00 0.00 100 952.1
20260507082337 63 220 2.0 11.0 0.00 0.00 0.00 100 952.2
20260507082134 63 217 2.0 10.0 0.00 0.00 0.00 100 952.1
20260507081931 63 237 3.0 12.0 0.00 0.00 0.00 100 952.0
20260507081831 63 246 3.0 14.0 0.00 0.00 0.00 100 952.1
20260507081729 62 255 3.0 14.0 0.00 0.00 0.00 100 952.1
20260507081525 63 246 2.0 14.0 0.00 0.00 0.00 100 952.0
20260507081323 63 0 1.0 6.0 0.00 0.00 0.00 100 952.0
20260507081222 63 232 2.0 7.0 0.00 0.00 0.00 100 952.0
20260507081119 62 252 2.0 9.0 0.00 0.00 0.00 100 952.0
20260507080916 62 248 2.0 9.0 0.00 0.00 0.00 100 951.9
20260507080713 62 235 2.0 9.0 0.00 0.00 0.00 100 951.9
20260507080612 62 238 2.0 8.0 0.00 0.00 0.00 100 951.9
20260507080510 62 223 2.0 9.0 0.00 0.00 0.00 100 951.9
20260507080307 62 223 2.0 9.0 0.00 0.00 0.00 100 951.9
20260507080103 62 240 2.0 10.0 0.00 0.00 0.00 100 951.9
20260507080034 62 232 2.0 10.0 0.00 0.00 0.00 100 951.8
20260507080003 62 232 2.0 10.0 0.00 0.00 0.00 100 951.8
20260507075900 62 229 2.0 10.0 0.00 0.00 0.00 100 951.7
20260507075657 63 223 2.0 10.0 0.00 0.00 0.00 100 951.8
20260507075453 62 219 2.0 10.0 0.00 0.00 0.00 100 951.8
20260507075352 62 217 2.0 10.0 0.00 0.00 0.00 100 951.8
20260507075249 62 221 2.0 10.0 0.00 0.00 0.00 100 951.9
20260507075047 62 223 2.0 10.0 0.00 0.00 0.00 100 951.8
20260507074844 62 247 2.0 8.0 0.00 0.00 0.00 100 951.9
20260507074743 62 0 2.0 8.0 0.00 0.00 0.00 100 951.9
20260507074641 62 241 2.0 10.0 0.00 0.00 0.00 100 951.9
20260507074438 62 216 2.0 10.0 0.00 0.00 0.00 100 951.8
20260507074234 62 206 3.0 14.0 0.00 0.00 0.00 100 951.8
20260507074134 62 215 3.0 14.0 0.00 0.00 0.00 100 951.8
20260507074028 62 217 3.0 14.0 0.00 0.00 0.00 100 951.8
20260507073825 62 228 3.0 7.0 0.00 0.00 0.00 100 951.6
20260507073622 62 225 2.0 8.0 0.00 0.00 0.00 100 951.6
20260507073521 62 0 2.0 8.0 0.00 0.00 0.00 100 951.8
20260507073419 62 0 2.0 8.0 0.00 0.00 0.00 100 951.8
20260507073215 62 0 2.0 8.0 0.00 0.00 0.00 100 951.6
20260507073012 61 0 2.0 7.0 0.00 0.00 0.00 100 951.7
20260507072911 61 0 2.0 10.0 0.00 0.00 0.00 100 951.6
20260507072809 61 236 3.0 16.0 0.00 0.00 0.00 100 951.6
20260507072606 61 230 3.0 16.0 0.00 0.00 0.00 100 951.6
20260507072403 61 226 3.0 13.0 0.00 0.00 0.00 100 951.6
20260507072306 61 223 3.0 13.0 0.00 0.00 0.00 100 951.5
20260507072200 61 218 3.0 13.0 0.00 0.00 0.00 100 951.6
20260507072003 61 235 2.0 13.0 0.00 0.00 0.00 100 951.5
20260507071753 61 243 2.0 7.0 0.00 0.00 0.00 100 951.4
20260507071652 61 231 2.0 7.0 0.00 0.00 0.00 100 951.5
20260507071606 61 229 2.0 9.0 0.00 0.00 0.00 100 951.5
20260507071347 61 238 3.0 19.0 0.00 0.00 0.00 100 951.5
20260507071144 61 234 3.0 19.0 0.00 0.00 0.00 100 951.5
20260507071043 61 236 3.0 19.0 0.00 0.00 0.00 100 951.2
20260507070940 62 236 2.0 8.0 0.00 0.00 0.00 100 951.4
20260507070738 61 234 2.0 11.0 0.00 0.00 0.00 100 951.3
20260507070534 61 269 4.0 15.0 0.00 0.00 0.00 100 951.4
20260507070434 61 269 5.0 15.0 0.00 0.00 0.00 100 951.3
20260507070331 61 269 4.0 15.0 0.00 0.00 0.00 100 951.3
20260507070129 61 242 2.0 10.0 0.00 0.00 0.00 100 951.3
20260507065925 61 233 2.0 11.0 0.00 0.00 0.00 100 951.3
20260507065825 61 227 3.0 11.0 0.00 0.00 0.00 100 951.2
20260507065722 61 227 3.0 11.0 0.00 0.00 0.00 100 951.3
20260507065519 61 220 3.0 17.0 0.00 0.00 0.00 100 951.2
20260507065315 61 234 3.0 17.0 0.00 0.00 0.00 100 951.2
20260507065215 61 248 4.0 14.0 0.00 0.00 0.00 100 951.2
20260507065113 61 258 5.0 13.0 0.00 0.00 0.00 100 951.2
20260507064909 61 271 5.0 16.0 0.00 0.00 0.00 100 951.1
20260507064706 62 260 2.0 12.0 0.00 0.00 0.00 100 951.1
20260507064605 62 223 2.0 6.0 0.00 0.00 0.00 100 951.1
20260507064503 62 217 2.0 7.0 0.00 0.00 0.00 100 951.2
20260507064300 62 220 2.0 10.0 0.00 0.00 0.00 100 951.2
20260507064056 62 222 2.0 10.0 0.00 0.00 0.00 100 951.2
20260507063955 62 220 2.0 10.0 0.00 0.00 0.00 100 951.2
20260507063850 62 234 2.0 9.0 0.00 0.00 0.00 100 951.1
20260507063647 62 253 2.0 10.0 0.00 0.00 0.00 100 951.3
20260507063443 62 247 2.0 13.0 0.00 0.00 0.00 100 951.2
20260507063342 62 249 2.0 13.0 0.00 0.00 0.00 100 951.2
20260507063240 61 254 2.0 13.0 0.00 0.00 0.00 100 951.2
20260507063037 61 260 3.0 18.0 0.00 0.00 0.00 100 951.1
20260507062841 61 248 4.0 18.0 0.00 0.00 0.00 100 951.2
20260507062732 61 243 4.0 18.0 0.00 0.00 0.00 100 951.0
20260507062630 61 240 4.0 18.0 0.00 0.00 0.00 100 951.0
20260507062426 61 224 3.0 13.0 0.00 0.00 0.00 100 951.1
20260507062223 61 222 3.0 13.0 0.00 0.00 0.00 100 951.1
20260507062123 60 225 2.0 12.0 0.00 0.00 0.00 100 951.1
20260507062020 60 237 2.0 17.0 0.00 0.00 0.00 100 951.1
20260507061817 60 240 4.0 17.0 0.00 0.00 0.00 100 951.1
20260507061613 60 238 5.0 17.0 0.00 0.00 0.00 100 950.9
20260507061513 60 244 6.0 20.0 0.00 0.00 0.00 100 950.9
20260507061410 60 241 5.0 20.0 0.00 0.00 0.00 100 951.0
20260507061207 60 249 5.0 20.0 0.00 0.00 0.00 100 950.8
20260507061004 60 247 3.0 12.0 0.00 0.00 0.00 100 950.9
20260507060904 60 242 3.0 14.0 0.00 0.00 0.00 100 951.0
20260507060801 60 242 3.0 14.0 0.00 0.00 0.00 100 950.9
20260507060557 60 240 4.0 14.0 0.00 0.00 0.00 100 950.9
20260507060354 60 218 2.0 9.0 0.00 0.00 0.00 100 950.9
20260507060253 60 214 2.0 9.0 0.00 0.00 0.00 100 950.8
20260507060150 60 215 3.0 12.0 0.00 0.00 0.00 100 950.8
20260507055958 60 237 4.0 14.0 0.00 0.00 0.00 100 950.7
20260507055744 60 239 3.0 10.0 0.00 0.00 0.00 100 950.7
20260507055643 60 234 2.0 10.0 0.00 0.00 0.00 100 950.7
20260507055541 60 238 2.0 9.0 0.00 0.00 0.00 100 950.6
20260507055338 59 251 3.0 16.0 0.00 0.00 0.00 100 950.6
20260507055134 59 255 3.0 16.0 0.00 0.00 0.00 100 950.6
20260507055033 59 262 2.0 16.0 0.00 0.00 0.00 100 950.6
20260507054931 59 243 2.0 15.0 0.00 0.00 0.00 100 950.6
20260507054715 59 237 2.0 15.0 0.00 0.00 0.00 100 950.5
20260507054511 59 235 2.0 10.0 0.00 0.00 0.00 100 950.4
20260507054410 59 238 2.0 10.0 0.00 0.00 0.00 100 950.5
20260507054307 59 229 2.0 10.0 0.00 0.00 0.00 100 950.4
20260507054104 59 216 2.0 10.0 0.00 0.00 0.00 100 950.4
20260507053902 59 212 2.0 10.0 0.00 0.00 0.00 100 950.4
20260507053801 59 218 2.0 10.0 0.00 0.00 0.00 100 950.3
20260507053655 59 223 2.0 11.0 0.00 0.00 0.00 100 950.3
20260507053452 59 218 2.0 12.0 0.00 0.00 0.00 100 950.4
20260507053249 59 221 3.0 12.0 0.00 0.00 0.00 100 950.3
20260507053148 59 216 2.0 10.0 0.00 0.00 0.00 100 950.4
20260507053046 59 214 2.0 10.0 0.00 0.00 0.00 100 950.4
20260507052843 59 199 3.0 10.0 0.00 0.00 0.00 100 950.3
20260507052640 59 213 2.0 10.0 0.00 0.00 0.00 100 950.3
20260507052539 59 216 2.0 10.0 0.00 0.00 0.00 100 950.5
20260507052437 59 212 2.0 10.0 0.00 0.00 0.00 100 950.5